Tracking 19279 objects as of 13-Nov-2018
HD Live streaming from Space Station
objects crossing your sky now

NATO 3B

Track NATO 3B now!
NATO 3B is classified as:


NORAD ID: 9785
Int'l Code: 1977-005A
Perigee: 37,047.8 km
Apogee: 37,466.9 km
Inclination: 13.6 °
Period: 1,511.5 minutes
Semi major axis: 43628 km
RCS: 8.6584 m2 (large)
Launch date: January 28, 1977
Source: North Atlantic Treaty Organization (NATO)
Launch site: AIR FORCE EASTERN TEST RANGE (AFETR)
aabbcc
Your satellite tracking list
Your tracking list is empty




NASA's NSSDC Master Catalog

Two Line Element Set (TLE):
1  9785U 77005A   18316.04925708 -.00000089  00000-0  00000+0 0  9999
2  9785  13.5954 331.3064 0048026 341.0676  13.6638  0.95268687 90372
Source of the keplerian elements: AFSPC